Regional Weather Roundup
Issued by NWS

Home | Current Version | Previous Version | Graphics & Text | Print | Product List | Glossary On
Versions: 1 2 3 4 5 6 7 8 9 10 11 12 13 14 15 16 17 18 19 20 21 22 23 24 25 26 27 28 29 30 31 32 33 34 35 36 37 38 39 40 41 42 43 44 45 46 47 48 49 50
000
ASUS43 KIND 291359
RWRIN

WEATHER ROUNDUP FOR INDIANA
NATIONAL WEATHER SERVICE INDIANAPOLIS IN
1000 AM EDT SUN MAR 29 2015

NOTE: "FAIR" INDICATES FEW OR NO CLOUDS BELOW 12,000 FEET WITH NO
SIGNIFICANT WEATHER AND/OR OBSTRUCTIONS TO VISIBILITY.

* - STATION DOES NOT REPORT WEATHER SUCH AS PRECIPITATION OR FOG.

+ - STATION NOT QUALITY CONTROLLED BY THE NATIONAL WEATHER SERVICE.
    USE DATA WITH CAUTION...ESPECIALLY DEWPOINT AND RELATIVE
    HUMIDITY OBSERVATIONS.

INZ001>003-010>013-019-020-291500-
NORTHWEST INDIANA

CITY           SKY/WX    TMP DP  RH WIND       PRES   REMARKS

$$

LMZ046-743>745-291500-
SOUTHERN LAKE MICHIGAN

STATION/POSITION TIME  TEMP WIND        PRES
                       AIR  DIR/SP/G
                 (UTC) (F)  (DEG/KT/KT) (MB)
BURNS HARBOR     1300   31  180/ 16/ 23 1021.7F
MICHIGAN CITY    1300   30  150/ 17/ 21   N/A

$$

INZ004-005-014>016-021>024-291500-
NORTH CENTRAL INDIANA

CITY           SKY/WX    TMP DP  RH WIND       PRES   REMARKS
GOSHEN         MOSUNNY   34  18  52 S18G24    30.20R WCI  23
SOUTH BEND     MOSUNNY   34  17  50 S16G22    30.18F WCI  24

$$

INZ006>009-017-018-025>027-291500-
NORTHEAST INDIANA

CITY           SKY/WX    TMP DP  RH WIND       PRES   REMARKS
ANGOLA *+      SUNNY     28  16  59 S10       30.21S WCI  19
FORT WAYNE     MOSUNNY   32  20  61 S15       30.26S WCI  22

$$

INZ028-029-035-036-043>045-051>053-291500-
WEST CENTRAL INDIANA

CITY           SKY/WX    TMP DP  RH WIND       PRES   REMARKS
CRAWFORDSVL +  SUNNY     33  14  46 S14       30.24S WCI  23
GREENCASTLE +  SUNNY     32  14  47 S9        30.26R WCI  24
LAFAYETTE      SUNNY     34  17  50 S13G20    30.22S WCI  25
TERRE HAUTE    SUNNY     36  20  52 S14       30.24F

$$

INZ030>032-037>040-046>048-054>057-064-065-291500-
CENTRAL INDIANA

CITY           SKY/WX    TMP DP  RH WIND       PRES   REMARKS
COLUMBUS       SUNNY     32  16  51 S16       30.29  WCI  21
GREENWOOD *+   SUNNY     32  16  51 S17       30.28S WCI  21
INDIANAPOLIS   PTSUNNY   34  17  50 S12       30.25S WCI  25
-EAGLE CREEK   SUNNY     32  16  51 S12       30.26S WCI  23
KOKOMO *+        N/A     32  19  59 S20       30.24R WCI  20
MT COMFORT *+  SUNNY     32  12  43 S16       30.26S WCI  21
SHELBYVILLE    SUNNY     35  19  52 S18       30.27F WCI  24

$$

INZ033-034-041-042-049-050-058-059-291500-
EAST CENTRAL INDIANA

CITY           SKY/WX    TMP DP  RH WIND       PRES   REMARKS
MUNCIE         SUNNY     32  17  54 S14       30.25F WCI  22

$$

INZ060-061-067>069-081>083-085>088-291500-
SOUTHWEST INDIANA

CITY           SKY/WX    TMP DP  RH WIND       PRES   REMARKS
EVANSVILLE     SUNNY     39  19  44 S14       30.29F
HUNTINGBURG *+ SUNNY     36  19  51 S13       30.30F

$$

INZ062-063-066-070>080-084-089>092-291500-
SOUTH CENTRAL AND SOUTHEAST INDIANA

CITY           SKY/WX    TMP DP  RH WIND       PRES   REMARKS
BLOOMINGTON    SUNNY     34  19  54 S9        30.27F WCI  27
SEYMOUR +      SUNNY     36  19  51 S12G17    30.30F

$$



USA.gov is the U.S. government's official web portal to all federal, state and local government web resources and services.